Location: Bucharest
(44.4268°N, 26.1025°E)
Time: 19:49:03
(UTC+03:00)

CUBESAT XI-V - Pass Details

Date: 05 July 2022
Orbit: 668 x 690 km, 98.1° (Epoch: 18 August)

Event Time Altitude Azimuth Distance (km) Brightness Sun altitude
Exits shadow 01:47:40 10° 109° (ESE) 2,072 ? -22.5°
Maximum altitude 01:50:53 20° 64° (ENE) 1,536 ? -22.4°
Drops below altitude 10° 01:54:13 10° 17° (NNE) 2,107 ? -22.3°
Sets 01:56:55 0° 1° (N) 3,023 ? -22.2°
